[[{"header":{"parameterUnit":"m.s-1","parameterCategory":1,"la1":30.2991,"la2":30.254,"lo1":-89.0895,"lo2":-89.0444,"dy":0.0017,"dx":0.0017,"nx":28,"ny":28,"refTime":"2024-04-15T09:00:00:Z","depth":0,"parameterNumber":2,"parameterNumberName":"U-component_of_WINDS"},"data":[0,0,0,0,0,0,0,0,0,0,0,0,0,0,0,0,0,0,0,0,0,0,0,0,0,0,0,0,0,0,0,0,0,0,0,0,0,0,0,0,0,0,0,0,0,0,0,0,0,0,0,0,0,0,0,0,0,0,-1.7761,-1.776,0,-1.7711,-1.7711,-1.771,-1.768,-1.768,-1.768,-1.768,-1.7627,-1.7625,-1.7624,0,0,0,0,0,0,0,0,0,0,0,0,0,-1.7826,-1.7825,-1.7761,-1.776,-1.7759,-1.7711,-1.7711,-1.771,-1.768,-1.768,-1.768,-1.768,-1.7627,-1.7626,-1.7624,0,0,0,0,0,0,0,0,0,0,0,0,0,-1.7789,-1.7825,-1.7761,-1.7739,-1.7736,-1.7712,-1.7711,-1.771,-1.768,-1.768,-1.768,-1.7679,-1.7628,-1.7626,-1.7624,-1.7616,0,0,-1.7618,-1.7617,0,0,0,0,0,0,0,0,-1.7792,-1.7787,-1.7743,-1.774,-1.7737,-1.7702,-1.7714,-1.7678,-1.768,-1.7701,-1.768,-1.7679,-1.7652,-1.7648,-1.7639,-1.7614,-1.7612,-1.7618,-1.7617,-1.7616,-1.7615,0,0,0,0,0,0,0,-1.7794,-1.7789,-1.7741,-1.7742,-1.7739,-1.773,-1.7725,-1.7707,-1.7678,-1.7699,-1.7697,-1.7692,-1.765,-1.7641,-1.7637,-1.7611,-1.7618,-1.7616,-1.7615,-1.7614,-1.7576,-1.7577,0,0,0,0,0,0,-1.7801,-1.7791,-1.7743,-1.774,-1.7765,-1.773,-1.7723,-1.7713,-1.7678,-1.7673,-1.7692,-1.7691,-1.7644,-1.764,-1.7635,-1.7624,-1.7616,-1.7614,-1.7613,-1.7576,-1.7576,-1.7577,0,0,0,0,0,0,-1.7802,-1.7797,-1.7745,-1.7765,-1.7758,-1.7729,-1.7718,-1.7712,-1.7703,-1.7673,-1.7667,-1.7688,-1.7644,-1.7638,-1.7621,-1.7621,-1.7613,-1.7611,-1.7576,-1.7576,-1.7577,-1.7601,0,0,0,0,0,0,-1.7804,-1.7797,-1.7795,-1.7765,-1.7757,-1.7732,-1.7718,-1.7712,-1.77,-1.7698,-1.7668,-1.7662,-1.7643,-1.7624,-1.7619,-1.7619,-1.761,-1.7576,-1.7576,-1.7576,-1.76,-1.7602,-1.7603,0,0,0,0,0,-1.7807,-1.7803,-1.7795,-1.7789,-1.7753,-1.7732,-1.7727,-1.7706,-1.77,-1.7697,-1.7678,-1.7663,-1.7623,-1.7623,-1.7617,-1.7616,-1.7576,-1.7576,-1.7576,-1.7599,-1.7601,-1.7603,0,0,0,0,0,0,-1.7833,-1.7799,-1.7789,-1.7776,-1.7757,-1.7727,-1.7722,-1.7709,-1.7691,-1.769,-1.7663,-1.7657,-1.7642,-1.7627,-1.7629,-1.7606,-1.7597,-1.7597,-1.7617,-1.7619,-1.762,-1.7624,-1.7608,0,0,0,0,0,-1.7837,-1.7824,-1.7795,-1.7786,-1.7777,-1.7752,-1.7742,-1.7727,-1.7706,-1.7698,-1.7677,-1.7657,-1.7639,-1.7628,-1.7611,-1.7598,-1.759,-1.7594,-1.7596,-1.7598,-1.7597,-1.7588,-1.7589,-1.7578,-1.7578,-1.7578,0,0,-1.7846,-1.7825,-1.7819,-1.7791,-1.7774,-1.776,-1.7745,-1.7731,-1.772,-1.7695,-1.7678,-1.7663,-1.7638,-1.7623,-1.7616,-1.761,-1.7599,-1.7598,-1.76,-1.7598,-1.7589,-1.759,-1.7591,-1.7578,-1.7578,-1.7578,0,0,-1.7854,-1.7838,-1.7828,-1.7813,-1.7789,-1.7772,-1.777,-1.7741,-1.773,-1.7713,-1.7694,-1.768,-1.7651,-1.7634,-1.7622,-1.7624,-1.761,-1.7619,-1.7628,-1.762,-1.7621,-1.7622,-1.7622,-1.7622,-1.7619,-1.7619,-1.7619,0,-1.7867,-1.7846,-1.7825,-1.7812,-1.78,-1.7778,-1.7768,-1.7753,-1.7725,-1.7716,-1.7711,-1.7674,-1.7656,-1.7636,-1.7637,-1.7628,-1.7624,-1.7622,-1.7623,-1.7623,-1.7624,-1.7623,-1.7623,-1.762,-1.762,-1.762,-1.762,0,-1.7863,-1.7849,-1.7844,-1.7818,-1.7805,-1.7794,-1.777,-1.776,-1.7746,-1.773,-1.7712,-1.769,-1.7667,-1.7662,-1.7648,-1.764,-1.7637,-1.7628,-1.7618,-1.7626,-1.7625,-1.7625,-1.7622,-1.7621,-1.7621,-1.7621,0,0,-1.7886,-1.7848,-1.7847,-1.7834,-1.7806,-1.7794,-1.7782,-1.776,-1.7751,-1.7732,-1.772,-1.7696,-1.7687,-1.7673,-1.7658,-1.7651,-1.7653,-1.7642,-1.7641,-1.7644,-1.7642,-1.7649,-1.7649,-1.7644,-1.7644,-1.7644,-1.7644,0,-1.7889,-1.7866,-1.7847,-1.783,-1.7816,-1.7796,-1.7784,-1.7766,-1.775,-1.7735,-1.7717,-1.77,-1.769,-1.7682,-1.7674,-1.7655,-1.7652,-1.7654,-1.7632,-1.7631,-1.7638,-1.7649,-1.7656,-1.7656,-1.7643,-1.7643,-1.7643,0,-1.789,-1.7872,-1.7855,-1.7828,-1.7821,-1.7812,-1.779,-1.7777,-1.7755,-1.7744,-1.7729,-1.7713,-1.7697,-1.769,-1.7668,-1.767,-1.766,-1.7649,-1.7649,-1.7645,-1.7637,-1.7644,-1.7656,-1.7656,-1.7643,-1.7643,-1.7643,0,-1.7907,-1.7879,-1.7865,-1.7855,-1.7823,-1.7817,-1.7803,-1.7781,-1.777,-1.7751,-1.7743,-1.7722,-1.7711,-1.7695,-1.7673,-1.767,-1.7654,-1.7645,-1.7643,-1.7644,-1.764,-1.764,-1.7649,-1.7635,-1.7635,-1.7635,-1.7635,0,-1.7912,-1.7902,-1.7872,-1.7863,-1.7851,-1.7828,-1.7817,-1.7801,-1.7782,-1.7769,-1.775,-1.7738,-1.7711,-1.7696,-1.7679,-1.7663,-1.7658,-1.7648,-1.7644,-1.7649,-1.7651,-1.7641,-1.764,-1.7635,-1.7635,-1.7635,-1.7635,0,-1.7929,-1.7908,-1.7891,-1.7863,-1.7856,-1.7848,-1.7824,-1.7814,-1.7797,-1.7781,-1.7776,-1.775,-1.7731,-1.7709,-1.7682,-1.7671,-1.7656,-1.765,-1.7664,-1.7661,-1.766,-1.766,-1.7663,-1.7662,-1.7649,-1.7649,-1.765,0,-1.7933,-1.7924,-1.7896,-1.7886,-1.7874,-1.7858,-1.7846,-1.7824,-1.7812,-1.7787,-1.778,-1.776,-1.7742,-1.7713,-1.7691,-1.7671,-1.7663,-1.7666,-1.766,-1.7666,-1.7662,-1.7663,-1.7661,-1.7667,-1.7667,-1.7667,-1.7668,0,-1.7942,-1.7932,-1.7916,-1.7897,-1.7883,-1.7867,-1.7849,-1.7842,-1.7816,-1.7804,-1.7785,-1.7772,-1.7745,-1.7725,-1.7702,-1.7687,-1.7672,-1.767,-1.7668,-1.7673,-1.7681,-1.7676,-1.7667,-1.7669,-1.7669,-1.7669,-1.7669,-1.7669,-1.7952,-1.7943,-1.7922,-1.7904,-1.7889,-1.7873,-1.7863,-1.7845,-1.7829,-1.7806,-1.7794,-1.7775,-1.7753,-1.772,-1.7706,-1.769,-1.7685,-1.7683,-1.7682,-1.7682,-1.7683,-1.7685,-1.7686,-1.7686,-1.7686,-1.7686,-1.7686,0,-1.7959,-1.7944,-1.7929,-1.7905,-1.7892,-1.7881,-1.7861,-1.785,-1.7833,-1.7814,-1.7798,-1.7776,-1.7756,-1.7733,-1.7712,-1.7704,-1.7697,-1.7699,-1.7699,-1.7695,-1.7689,-1.7693,-1.7705,-1.7705,-1.7705,-1.7705,-1.7705,-1.7705,-1.7961,-1.7946,-1.7934,-1.7911,-1.7896,-1.7878,-1.7867,-1.7852,-1.7837,-1.7814,-1.7798,-1.7783,-1.7762,-1.7739,-1.7721,-1.7714,-1.7707,-1.7711,-1.7703,-1.7697,-1.7696,-1.7694,-1.7697,-1.771,-1.771,-1.7709,-1.7709,-1.7709]},{"header":{"parameterUnit":"m.s-1","parameterCategory":1,"la1":30.2991,"la2":30.254,"lo1":-89.0895,"lo2":-89.0444,"dy":0.0017,"dx":0.0017,"nx":28,"ny":28,"refTime":"2024-04-15T09:00:00:Z","depth":0,"parameterNumber":3,"parameterNumberName":"V-component_of_WINDS"},"data":[0,0,0,0,0,0,0,0,0,0,0,0,0,0,0,0,0,0,0,0,0,0,0,0,0,0,0,0,0,0,0,0,0,0,0,0,0,0,0,0,0,0,0,0,0,0,0,0,0,0,0,0,0,0,0,0,0,0,4.4958,4.496,0,4.5074,4.5075,4.5076,4.5055,4.5053,4.5051,4.5049,4.5163,4.5168,4.5172,0,0,0,0,0,0,0,0,0,0,0,0,0,4.4716,4.4721,4.4958,4.496,4.4961,4.5074,4.5075,4.5077,4.5055,4.5053,4.505,4.5048,4.5161,4.5167,4.5173,0,0,0,0,0,0,0,0,0,0,0,0,0,4.4825,4.4722,4.4958,4.4964,4.4966,4.5073,4.5075,4.5077,4.5056,4.5053,4.505,4.5047,4.5159,4.5166,4.5174,4.5281,0,0,4.5196,4.52,0,0,0,0,0,0,0,0,4.4819,4.4834,4.4962,4.4964,4.4966,4.5047,4.5032,4.5145,4.5057,4.5022,4.5049,4.5045,4.5126,4.5136,4.5165,4.5286,4.5291,4.5197,4.5202,4.5205,4.5207,0,0,0,0,0,0,0,4.4812,4.4829,4.5004,4.4964,4.4966,4.496,4.4972,4.5053,4.509,4.5024,4.5023,4.5037,4.5127,4.5158,4.5167,4.5293,4.5197,4.5203,4.5208,4.5211,4.5509,4.5512,0,0,0,0,0,0,4.4803,4.4823,4.5,4.5007,4.4884,4.4967,4.4981,4.5024,4.5089,4.5096,4.504,4.5036,4.5146,4.5158,4.5171,4.5301,4.5205,4.5212,4.5216,4.5506,4.551,4.5514,0,0,0,0,0,0,4.4798,4.4819,4.4995,4.4915,4.4937,4.4975,4.5023,4.5028,4.5058,4.5101,4.5107,4.5065,4.5144,4.5161,4.5254,4.5305,4.5215,4.5222,4.5502,4.5507,4.5512,4.5562,0,0,0,0,0,0,4.4791,4.4817,4.4859,4.4916,4.4941,4.5078,4.5027,4.5032,4.5072,4.5068,4.5125,4.5132,4.5143,4.5243,4.5262,4.5313,4.5227,4.5497,4.5504,4.551,4.5556,4.5569,4.5579,0,0,0,0,0,4.4782,4.4867,4.4861,4.4882,4.4995,4.5081,4.5095,4.5108,4.5076,4.5118,4.5145,4.513,4.5297,4.5253,4.5274,4.5328,4.5494,4.5502,4.551,4.5551,4.5566,4.5579,0,0,0,0,0,0,4.4813,4.4875,4.4868,4.4975,4.5023,4.5077,4.513,4.5123,4.518,4.5174,4.5186,4.5199,4.5295,4.5321,4.5271,4.5436,4.5391,4.5403,4.5415,4.543,4.5441,4.5432,4.5234,0,0,0,0,0,4.4832,4.4898,4.4948,4.5037,4.5062,4.5092,4.513,4.5136,4.5186,4.5206,4.524,4.5287,4.5351,4.5392,4.5452,4.556,4.5572,4.5608,4.562,4.5629,4.5639,4.5698,4.5715,4.5539,4.5539,4.5539,0,0,4.4872,4.4914,4.4955,4.5045,4.5083,4.515,4.5109,4.5182,4.5232,4.5216,4.5307,4.5334,4.5388,4.549,4.5536,4.5515,4.569,4.5639,4.5646,4.5651,4.5708,4.5725,4.574,4.5545,4.5544,4.5543,0,0,4.498,4.5018,4.5097,4.5137,4.5196,4.5216,4.5235,4.5291,4.5308,4.5401,4.5391,4.5449,4.5558,4.5597,4.5631,4.5756,4.5744,4.5775,4.5835,4.5893,4.5907,4.5919,4.5963,4.5979,4.5786,4.5786,4.5786,0,4.5022,4.5124,4.5138,4.5213,4.5252,4.5244,4.5323,4.536,4.5435,4.5463,4.5438,4.5575,4.5611,4.5722,4.5753,4.578,4.5802,4.5768,4.5904,4.5916,4.5928,4.597,4.5987,4.5789,4.5789,4.5788,4.5788,0,4.5173,4.5244,4.53,4.5375,4.5421,4.5498,4.5523,4.5568,4.557,4.5593,4.5687,4.573,4.5799,4.5826,4.5828,4.5938,4.5923,4.5901,4.5855,4.5948,4.5988,4.6004,4.5794,4.5793,4.5792,4.5791,0,0,4.5301,4.5385,4.5405,4.5439,4.5505,4.5559,4.5636,4.5706,4.5744,4.5796,4.586,4.5953,4.5934,4.5973,4.5979,4.6031,4.6127,4.6002,4.6004,4.6024,4.625,4.6266,4.6285,4.612,4.6123,4.6126,4.6246,0,4.5415,4.5551,4.5567,4.5688,4.5754,4.5747,4.5814,4.586,4.5884,4.5942,4.5967,4.6033,4.6003,4.6026,4.6077,4.6105,4.6172,4.6096,4.6178,4.6181,4.6165,4.6306,4.6322,4.6433,4.6261,4.6264,4.6266,0,4.5565,4.5624,4.5752,4.581,4.5838,4.5897,4.5963,4.602,4.6073,4.6086,4.6131,4.6131,4.6209,4.6162,4.6269,4.6217,4.6252,4.6271,4.6275,4.6283,4.6229,4.6316,4.6469,4.6486,4.6291,4.6289,4.6287,0,4.5646,4.5757,4.5848,4.5878,4.5947,4.5989,4.602,4.607,4.6112,4.6169,4.6196,4.626,4.6296,4.6346,4.6363,4.6327,4.647,4.6424,4.6482,4.6482,4.6512,4.651,4.6672,4.6535,4.6535,4.6535,4.6534,0,4.5771,4.5849,4.5886,4.5942,4.603,4.6047,4.6133,4.6162,4.6207,4.6268,4.6266,4.6323,4.6343,4.6403,4.6417,4.6504,4.652,4.6532,4.6535,4.6532,4.6531,4.6555,4.6547,4.6539,4.6538,4.6537,4.6536,0,4.5875,4.5903,4.6002,4.6061,4.6077,4.6139,4.6189,4.6243,4.6266,4.6343,4.6362,4.6398,4.6469,4.6492,4.6577,4.6587,4.6688,4.6684,4.667,4.6671,4.6728,4.6722,4.6911,4.6936,4.6783,4.6785,4.6786,0,4.5953,4.6014,4.6079,4.6121,4.6154,4.622,4.6263,4.6283,4.6327,4.6393,4.6439,4.651,4.6567,4.6681,4.6713,4.6778,4.6776,4.6838,4.6785,4.6781,4.6777,4.6773,4.6779,4.6847,4.6848,4.685,4.6851,0,4.6088,4.6099,4.6162,4.623,4.6282,4.6336,4.6388,4.6422,4.6449,4.6499,4.6572,4.6617,4.6705,4.6775,4.6842,4.6872,4.6866,4.6867,4.6884,4.6882,4.6871,4.6878,4.6697,4.6862,4.6861,4.686,4.686,4.6859,4.6181,4.6235,4.629,4.636,4.6402,4.6452,4.6506,4.6537,4.6599,4.6673,4.6681,4.676,4.6812,4.6901,4.6935,4.6996,4.6979,4.7003,4.7009,4.7015,4.702,4.6862,4.7008,4.7008,4.7008,4.7008,4.7007,0,4.6316,4.6352,4.6416,4.649,4.6546,4.6537,4.6595,4.6641,4.6712,4.6762,4.6819,4.6904,4.6972,4.7011,4.7079,4.7121,4.712,4.7138,4.7135,4.7142,4.7031,4.701,4.7138,4.7138,4.7138,4.7138,4.7138,4.7138,4.6392,4.6484,4.6502,4.6614,4.6648,4.6728,4.6761,4.6806,4.6847,4.6942,4.6999,4.7025,4.7071,4.7142,4.7204,4.7214,4.7239,4.7259,4.7267,4.7163,4.7149,4.7137,4.7116,4.7265,4.7265,4.7372,4.7373,4.7374]}]]